Location: Newark
(45.4422°N, 16.2769°E)
Time: 22:44:33
(UTC+00:00)

Courier 1B Rocket - Pass Details

Date: 09 December 2019
Orbit: 920 x 1202 km, 28.2° (Epoch: 20 January)

Event Time Altitude Azimuth Distance (km) Brightness Sun altitude
Rises 05:32:03 0° 215° (SW) 3,764 8.0 -8.6°
Reaches altitude 10° 05:36:50 10° 186° (S) 2,743 7.6 -7.8°
Maximum altitude 05:39:07 12° 165° (SSE) 2,573 7.8 -7.5°
Drops below altitude 10° 05:41:22 10° 145° (SE) 2,686 8.4 -7.1°
Sets 05:45:55 0° 115° (ESE) 3,586 10.8 -6.4°
